Flag for Slovenia Weather past 2 weeks in Kranj, Slovenia

Now
64 °F

Fog.


Feels Like: 64 °F
Forecast: 62 / 81 °F
Wind: 3 mph from East

Location: Ljubljana Airport / Brnik

Current Time: Aug 1, 2014 at 7:50:32 AM

Latest Report: Aug 1, 2014 at 7:00 AM


Visibility: 0 mi

Pressure: 29.89 "Hg

Humidity: 94%

Dew point: 63 °F

Location of KranjLocation

Historic Weather in Kranj — Graph

°F

Kranj temperature yesterday

Maximum temperature yesterday: 73 °F (at 3:30 PM)
Minimum temperature yesterday: 59 °F (at 1:30 AM)
Average temperature yesterday: 66 °F

Past Weeks' High & Low Weather Summary

 TemperatureHumidityPressure
High86 °F (Jul 19, 3:00 PM)100% (Jul 18, 3:30 AM)30.15 "Hg (Jul 18, 3:30 AM)
Low54 °F (Jul 24, 5:00 AM)37% (Jul 18, 2:00 PM)29.71 "Hg (Jul 30, 6:00 AM)
Average68 °F81%29.92 "Hg
* Reported Jul 17 7:00 AM — Aug 1 7:00 AM, Kranj, Weather by CustomWeather, © 2014

Note: Actual official high and low records may vary slightly from our data, if they occured in-between our weather recording intervals... More about our weather records

Advertising

Kranj weather history for previous 24 hours

 ConditionsComfort  
Time TempWeatherWind HumidityBarometerVisibility
7:00 AM
Aug 1
64 °FFog.3 mph94%29.89 "Hg0 mi
6:30 AM64 °FFog.3 mph100%29.89 "Hg1 mi
5:30 AM64 °FFog.1 mph94%29.89 "Hg0 mi
5:00 AM64 °FFog.1 mph94%29.89 "Hg0 mi
4:30 AM64 °FFog.1 mph100%29.89 "Hg0 mi
3:30 AM64 °FFog.1 mph94%29.89 "Hg3 mi
3:00 AM64 °FFog.1 mph94%29.89 "Hg3 mi
2:30 AM66 °FMostly cloudy.5 mph94%29.89 "HgN/A
2:00 AM66 °FMostly cloudy.5 mph94%29.89 "HgN/A
1:30 AM66 °FMostly cloudy.No wind100%29.92 "HgN/A
1:00 AM66 °FMostly cloudy.No wind100%29.92 "HgN/A
12:30 AM66 °FMostly cloudy.1 mph94%29.92 "HgN/A
12:00 AM66 °FMostly cloudy.No wind94%29.92 "HgN/A
11:30 PM
Jul 31
66 °FPassing clouds.1 mph94%29.92 "HgN/A
11:00 PM66 °FPassing clouds.1 mph100%29.92 "HgN/A
10:30 PM68 °FMostly cloudy.2 mph94%29.89 "HgN/A
10:00 PM68 °FPassing clouds.1 mph94%29.89 "HgN/A
9:30 PM68 °FPartly sunny.1 mph94%29.89 "HgN/A
9:00 PM68 °FSprinkles. Partly sunny.1 mph94%29.89 "HgN/A
8:30 PM70 °FPartly sunny.3 mph83%29.89 "HgN/A
8:00 PM70 °FPartly sunny.2 mph88%29.86 "HgN/A
7:30 PM72 °FPartly sunny.2 mph83%29.86 "HgN/A
7:00 PM72 °FPartly sunny.3 mph83%29.86 "HgN/A
6:30 PM72 °FBroken clouds.5 mph83%29.86 "HgN/A
6:00 PM72 °FBroken clouds.3 mph78%29.86 "HgN/A
5:30 PM73 °FBroken clouds.3 mph78%29.86 "HgN/A
5:00 PM73 °FBroken clouds.2 mph74%29.86 "HgN/A
4:30 PM73 °FSprinkles. Broken clouds.No wind78%29.86 "HgN/A
4:00 PM73 °FBroken clouds.2 mph74%29.86 "HgN/A
3:30 PM73 °FBroken clouds.5 mph74%29.86 "HgN/A
3:00 PM72 °FBroken clouds.5 mph78%29.86 "HgN/A
2:30 PM72 °FPartly sunny.3 mph78%29.86 "HgN/A
2:00 PM72 °FBroken clouds.5 mph73%29.86 "HgN/A
1:30 PM72 °FSprinkles. Broken clouds.No wind78%29.86 "HgN/A
1:00 PM72 °FBroken clouds.1 mph78%29.86 "HgN/A
12:30 PM72 °FBroken clouds.1 mph73%29.83 "HgN/A
12:00 PM72 °FBroken clouds.2 mph78%29.83 "HgN/A
11:30 AM70 °FBroken clouds.2 mph78%29.83 "Hg5 mi
11:00 AM66 °FBroken clouds.2 mph88%29.83 "HgN/A
10:30 AM64 °FLight rain. Broken clouds.1 mph94%29.83 "Hg5 mi
10:00 AM64 °FLight rain. Broken clouds.3 mph94%29.86 "Hg5 mi
9:30 AM64 °FLight rain. Broken clouds.2 mph94%29.83 "Hg5 mi
9:00 AM64 °FLight rain. Broken clouds.No wind94%29.83 "Hg5 mi
8:30 AM63 °FBroken clouds.1 mph100%29.83 "Hg5 mi
8:00 AM63 °FBroken clouds.2 mph100%29.83 "Hg5 mi
7:30 AM63 °FBroken clouds.5 mph94%29.80 "Hg5 mi
7:00 AM61 °FBroken clouds.5 mph100%29.80 "Hg5 mi
Weather by CustomWeather, © 2014

See weather overviewHow to use our weather pages